Погода в Лагани

Погода в Лагани : погода сейчас, прогноз погоды и архив. Всё, что Вы хотите узнать о погоде в Лагани!

Поиск расширенной информации на нашем сайте:

Другие новости

Новости СМИ2

Главная страница сайта

Новости сайта

03.07.2017

Напоминаем, что на нашем специализированном сайте Метеоцентр.Азия вы можете получить высокодетализированные автоматические прогнозы погоды по пунктам России, СНГ и мира в авиационном формате (включающие направление и скорость ветра, видимость, явления погоды, количество и форму облачности, нижнюю и верхнюю границу облачности).


Погода в Лагани - сегодня

Время (UTC), дата Ветер
(°,м/с) 
Видим.   Явления Облачность Т
(°С)
Тd
(°С)
f(%) Тe
(°С)
Pmin
(гПа)
dP
(гПа)
Po
(мм)
O2
(г/м3)
Тmin Tmax R s Состояние
почвы
18 20.02.18 070 (В) 10 км    ясно 
-5.6 -7 90 -9  1035.8  0.4  779  321           
21 20.02.18 010 (С) 10 км    9/9 300 м 
[Sc]
+0 -2.5 83 -2  1023  0.2  769  310           
00 21.02.18 020 (С) 10 км    10/6 300 м средняя 
[Sc|Ac As]
-0.4 -2.6 85 -1  1023.8  0.8  770  311           
03 21.02.18 030 (СВ) 10 км    10/6 300 м средняя 
[Sc|Ac As]
-0.8 -2.5 88 -2  1024.4  0.7  770  312  -0.8         
06 21.02.18 060 (СВ) 10 км  {снег}  10/0 средняя 
[Ac As]
-0.3 -2.6 84 -2  1025.1  0.7  771  311  -0.9         
09 21.02.18 090 (В) 10 км    10/10 600 м 
[Sc]
+0.6 -2.2 81 -1  1025.1  -0.1  771  310           
12 21.02.18 100 (В) 10 км    10/6 300 м средняя 
[St|Ac As]
+0.1 -1.9 86 -2  1024.8  -0.3  771  311           
15 21.02.18 080 (В) 10 км    10/6 300 м средняя 
[St|Ac As]
-1.1 -2.7 89 -4  1025  0.2  771  312    +0.7  0.0     
18 21.02.18 080 (В) 10 км    10/5 300 м средняя 
[St|Ac As]
-1.5 -2.9 90 -4  1025.2  0.2  771  313           
21 21.02.18 080 (В) 10 км    10/10 600 м 
[Sc]
-2 -3.6 89 -5  1024.7  -0.5  771  313           
00 22.02.18 080 (В) 10 км    10/10 300 м 
[Sc]
-2.3 -3.4 92 -4  1023.6  -1.1  770  313           
03 22.02.18 060 (СВ) 10 км    10/10 600 м 
[Sc]
-2.2 -3.6 90 -5  1023.1  -0.5  770  313  -2.3         
06 22.02.18 060 (СВ) 10 км    10/10 600 м 
[Sc]
-1.7 -3.2 89 -4  1022.8  -0.4  769  312           
09 22.02.18 050 (СВ) 20000 м    9/9 600 м 
[Sc]
+0.8 -2.5 79 -2  1021.7  -1.1  768  309           
12 22.02.18 050 (СВ) 20000 м    10/0 средняя 
[Ac As]
+1 -2.7 76 -1  1020.8  -0.9  768  309           
15 22.02.18 050 (СВ) 20000 м    10/0 средняя 
[Ac As]
-0.2 -3.3 80 -3  1021.1  0.4  768  310    +1.4       
18 22.02.18 050 (СВ) 10 км    10/10 600 м 
[Sc]
-0.9 -3.5 82 -3  1021.5  0.3  768  311           
21 22.02.18 050 (СВ) 10 км    10/10 600 м 
[Sc]
-1.4 -4 82 -4  1021.3  -0.2  768  312           
00 23.02.18 040 (СВ) 10 км    10/10 600 м 
[Sc]
-1.3 -3.9 82 -4  1020.7  -0.6  768  311           
06 23.02.18 060 (СВ) 10 км  слаб. снег  10/10 300 м 
[Sc]
-1.1 -3.2 86 -5  1020.9  0.4  768  311           
09 23.02.18 070 (В) 7-11{11}  20000 м  {снег}  10/6 600 м кучево-дожд., средняя 
[Cb cap|Ac As]
+0.9 -2.4 79 -3  1019.7  -1.2  767  308           
12 23.02.18 060 (СВ) 7-11{11}  10 км  {снег}  10/10 600 м 
[Sc]
+0.1 -2.6 82 -4  1018.9  -0.8  766  309           
15 23.02.18 080 (В) 6-10  10 км    10/10 300 м 
[Sc]
-1.1 -2.7 89 -5  1018.5  -0.3  766  310    +1  0.0     
18 23.02.18 080 (В) 6-10{13}  10 км    10/10 300 м 
[Sc]
-1.6 -2.5 94 -5  1017.7  -0.8  765  311           
21 23.02.18 070 (В) 5{11}  4000 м  дымка  10/10 300 м 
[St]
-1.4 -1.9 96 -5  1016.2  -1.6  764  310           
Время (UTC), дата Ветер
(°,м/с) 
Видим.   Явления Облачность Т
(°С)
Тd
(°С)
f(%) Тe
(°С)
Pmin
(гПа)
dP
(гПа)
Po
(мм)
O2
(г/м3)
Тmin Tmax R s Состояние
почвы

Для получения пояснительной информации подведите курсор к названию столбца.

ПОГОДА в Лагани - архив

Всё, что Вы хотите узнать о погоде в Лагани - удобно и подробно!

Выберите нужную дату (начиная с 1 января 2015* года) и нажмите кнопку "Найти".
Будут отображены архивные сводки погоды по пункту Лагань, начиная с указанной даты.


Отображать данные в формате CSV (для использования в таблицах Excel)


Внимание! Наш архив погоды предназначен исключительно для личного некоммерческого использования в познавательных целях. Если Вам необходимы официальные справки о состоянии погоды (для производственных, юридических, коммерческих и т.п. целей), обращайтесь в органы Росгидромета.

*Примечание: данная дата относится к архиву по метеостанциям СССР (Россия, СНГ, Балтия).
Архив по метеостанциям Зарубежной Европы и Азии (кроме Китая) хранится 10 дней, по другим регионам земного шара (Китай, Африка, Америка, Австралия, Океания) - 1 день.

Лагань - район местоположения метеостанции


Название, широта, долгота, высота метеостанции:
Лагань 45.4°ш. 47.3°д. -24 м над ур. моря [Российская Федерация]

Дополнительная информация

В oтличие oт бoльшинства пoгoдных сайтoв мы публикуем пoдрoбную метеoинфoрмацию в детальнoм прoфессиoнальнoм фoрмате.

Характеристики температуры и влажнoсти вoздуха измеряются на высoте 2 м в тени вдали oт зданий и деревьев.
Скoрoсть ветра измеряется на высoте 10 м (на урoвне рoста челoвека скoрoсть ветра ниже в 1.5-2 раза). Если метеoстанция нахoдится в гoрoде или в лесу, тo скoрoсть ветра занижена на 2-4 м/с пo сравнению с oткрытым местoм. Скoрoсть ветра над акватoриями крупных рек и oзёр, а также на вершинах хoлмoв на 2-5 м/с выше, чем в oбычных услoвиях.
Атмoсфернoе давление в разных тoчках местнoсти мoжет значительнo oтличаться oт давления на метеoстанции, в зависимoсти oт услoвий рельефа (при пoдъёме на 10 м давление пoнижается примернo на 1 мм рт.ст.).